Tracking 19709 objects as of 19-Jun-2019
HD Live streaming from Space Station
objects crossing your sky now

COSMOS 1561

Track COSMOS 1561 now!
10-day predictions
COSMOS 1561 is classified as:


NORAD ID: 15000
Int'l Code: 1984-052C
Perigee: 1,468.8 km
Apogee: 1,491.6 km
Inclination: 74.0 °
Period: 115.4 minutes
Semi major axis: 7851 km
RCS: 0.6982 m2 (medium)
Launch date: May 28, 1984
Source: Commonwealth of Independent States (former USSR) (CIS)
Launch site: PLESETSK MISSILE AND SPACE COMPLEX (PKMTR)
aabbcc
Your satellite tracking list
Your tracking list is empty




NASA's NSSDC Master Catalog

Two Line Element Set (TLE):
1 15000U 84052C   19169.67905701 -.00000014 +00000-0 +91993-5 0  9998
2 15000 074.0093 177.6926 0014520 116.2706 002.7336 12.47949525596924
Source of the keplerian elements: AFSPC